Regional Weather Roundup
Issued by NWS Upton, NY

Current Version | Previous Version | Graphics & Text | Print | Product List | Glossary Off
Versions: 1 2 3 4 5 6 7 8 9 10 11 12 13 14 15 16 17 18 19 20 21 22 23 24 25 26 27

000
ASUS41 KOKX 161308
RWROKX

REGIONAL WEATHER ROUNDUP
NATIONAL WEATHER SERVICE NEW YORK NY
900 AM EDT MON OCT 16 2017

NOTE: "FAIR" INDICATES FEW OR NO CLOUDS BELOW 12,000 FEET WITH NO
SIGNIFICANT WEATHER AND/OR OBSTRUCTIONS TO VISIBILITY.

NYZ071-072-176-178-NJZ106-104-161400-
NEW YORK CITY METRO AREA

CITY           SKY/WX    TMP DP  RH WIND       PRES   REMARKS
Central Park   CLOUDY    57  41  55 VRB7      30.00R
Bronx Bot Gard   N/A     55  41  58 W13       29.97R
LaGuardia APRT CLOUDY    58  44  60 NW23G31   29.97R
Kennedy INTL   CLOUDY    58  42  55 NW22G29   29.96R
Breezy Point     N/A     57 N/A N/A NW14G22     N/A
Newark/Liberty CLOUDY    56  41  57 NW16G24   29.98R
Teterboro      CLOUDY    56  41  57 NW10      29.97R
$$

NYZ177-179-078>081-161400-
LONG ISLAND NEW YORK

CITY           SKY/WX    TMP DP  RH WIND       PRES   REMARKS
Jones Beach      N/A     59 N/A N/A NW14G22     N/A
Matinecock PT    N/A     59 N/A N/A NW21G26     N/A
Farmingdale    CLOUDY    60  47  61 NW12      29.95R
MacArthur/ISP  CLOUDY    61  49  64 NW14G22   29.94R
Shirley        CLOUDY    63  54  72 NW7       29.94R
Mt Sinai Harb    N/A     61 N/A N/A N10G17      N/A
Westhampton    PTSUNNY   61  54  77 NW10      29.94R
East Hampton   CLOUDY    58  51  76 NW8       29.92R
Montauk          N/A     61  48  62 N14       29.92R
$$

NYZ052-065-067-161400-
HUDSON VALLEY

CITY           SKY/WX    TMP DP  RH WIND       PRES   REMARKS
White Plains   CLOUDY    55  42  61 NW13      29.97R
Larchmont Harb   N/A     57 N/A N/A W15         N/A
Croton On Huds   N/A     55 N/A N/A NW10        N/A
Newburgh       PTSUNNY   52  43  71 NW6       29.99R
Montgomery     CLOUDY    53  41  63 NW9       29.99R
Poughkeepsie   CLOUDY    54  40  59 NW10      29.97R
Albany         CLOUDY    48  38  68 NW13      30.03R
$$

NJZ001-105-106-008-010-013-015-019>022-104-161400-
NEW JERSEY

CITY           SKY/WX    TMP DP  RH WIND       PRES   REMARKS
Newark/Liberty CLOUDY    56  41  57 NW16G24   29.98R
Teterboro      CLOUDY    56  41  57 NW10      29.97R
Caldwell       PTSUNNY   54  42  64 VRB6      30.00R
Somerville     CLOUDY    57  46  66 N12       29.99R
Linden         FAIR      56  43  61 N7        30.00R
Perth Amboy      N/A     57 N/A N/A N16         N/A
Sussex         CLOUDY    52  41  66 NW8       30.02R
Andover          N/A     51  41  68 N7G20     30.03R
Trenton        PTSUNNY   58  47  66 N9        29.99R
Millville      LGT RAIN  62  60  93 NW7       29.97S
Atlantic City  CLOUDY    60  59  96 NW9       29.97R
Wrightstown    CLOUDY    57  50  77 NW8       29.98R
Toms River       N/A     57  54  89 NW5       30.00R
Belmar         CLOUDY    58  54  86 W8        30.00R
$$

PAZ047>061-062-071-161400-
EASTERN PENNSYLVANIA

CITY           SKY/WX    TMP DP  RH WIND       PRES   REMARKS
Philadelphia   PTSUNNY   60  48  64 N12       29.99R
Allentown      CLOUDY    55  43  63 N15G22    30.04R
Scranton       CLOUDY    49  39  68 NW14      30.08R
$$

CTZ002-004>006-009-010-012-RIZ004-006-007-MAZ004-011-015-161400-
SOUTHERN NEW ENGLAND
 IN CT

CITY           SKY/WX    TMP DP  RH WIND       PRES   REMARKS
Bradley INTL   CLOUDY    54  42  64 NW12G17   29.94R
Hartford       CLOUDY    57  43  59 NW15      29.94R
Danbury        PTSUNNY   55  44  66 N8        29.98R
Wtrbury/Oxford CLOUDY    52  43  71 N9        29.95R
Norwalk Harbor   N/A     57 N/A N/A W15         N/A
Bridgeport     CLOUDY    59  46  62 N14       29.94R
Meriden        CLOUDY    55  43  63 N14G23    29.94R
New Haven      CLOUDY    58  44  60 NW8       29.94R
Chester        FAIR      57  45  62 N12G17    29.92S
Groton         CLOUDY    59  47  64 NW15      29.90R
Wilimantic     CLOUDY    56  45  66 NW9G22    29.93R

 IN RI

CITY           SKY/WX    TMP DP  RH WIND       PRES   REMARKS
Providence     CLOUDY    60  48  64 NW12      29.90R
Block Island   CLOUDY    59  48  67 NW12G18   29.91R
Westerly       CLOUDY    59  47  64 NW8       29.91R
 IN MA

CITY           SKY/WX    TMP DP  RH WIND       PRES   REMARKS
Boston         CLOUDY    61  48  62 W12G20    29.87R
Worcester      CLOUDY    53  43  68 W15       29.91R
Westfield      CLOUDY    53  40  61 NW13      29.94R
Provincetown   CLOUDY    62  54  74 W13       29.85R
Nantucket      CLOUDY    66  60  81 NW12      29.86R
$$

ANZ330-335-338-340-345-350-353-355-161400-
COASTAL MARINE OBSERVATIONS


STATION/POSITION TIME  SKY/WX   TEMP    WIND        PRES    VSBY  WAVE
                                AIR SEA DIR/SP/G                  HT/PER
                 (UTC)          (F)     (DEG/KT/KT) (MB)    (MI)  (FT/S)
NY HARB ENTRANCE 1250            61 67  330/ 19/ 23 1013.2          4/ 7
20 S FIRE ISLAND 1250            63 65  320/ 17/ 21 1013.6          5/ 7
GREAT SOUTH BAY  1230            62 66  310/ 12/ 16   N/A
15 E BARNEGAT LI 1230               68                N/A           4/ 7
HUDSON CANYON    1250            64 66  330/ 19/ 23 1013.1          5/ 7
KINGS POINT      1230            59 68   20/ 14/ 18 1015.1
EXECUTION ROCKS  1230            60     300/ 14/ 21   N/A
WESTERN LI SOUND 1149            61     300/ 16/ 21   N/A           1/ 3
CENTRAL LI SOUND 1200            62     350/ 14/ 19   N/A           2
EASTERN LI SOUND NOT AVBL
ROBBINS REEF     1242            58     300/ 22/ 27 1015.5
$$


>>>>>>>>>>>>>>>>>>>>>>>>>>>> KEY <<<<<<<<<<<<<<<<<<<<<<<<<<<
>                                                          <
>     SKY/WX - Sky Condition/Present Weather               <
>     TMP    - Temperature in Fahrenheit                   <
>     DP     - Dew Point in Fahrenheit                     <
>     RH     - Relative Humidity in Percent                <
>     WIND   - Direction (from) and Speed in MPH           <
>     PRES   - Mean Sea Level Pressure (inches of Hg)      <
>     WCI    - Wind Chill Index                            <
>     VSB    - VISIBILITY IN MILES                         <
>     HX     - HEAT INDEX                                  <
>     TC     - TEMPERATURE IN CELSIUS                      <
>     VRB    - VARIABLE WIND DIRECTION                     <
>                                                          <
>>>>>>>>>>>>>>>>>>>>>>>>>>>> KEY <<<<<<<<<<<<<<<<<<<<<<<<<<<




USA.gov is the U.S. government's official web portal to all federal, state and local government web resources and services.